Weather History for KTVK - November, 2013

Change the Weather History Date:

Friday, November 22, 2013

  Actual Average Record
Temperature  
Mean Temperature 22 °F -  
Max Temperature 28 °F 47 °F 70 °F (1983)
Min Temperature 17 °F 28 °F 11 °F (1956)
Degree Days  
Heating Degree Days 42    
Moisture  
Dew Point 23 °F    
Average Humidity 93    
Maximum Humidity 100    
Minimum Humidity 86    
Precipitation  
Precipitation 0.00 in - - ()
Sea Level Pressure  
Sea Level Pressure 30.53 in    
Wind  
Wind Speed 11 mph (NNW)    
Max Wind Speed 15 mph    
Max Gust Speed 20 mph    
Visibility 10 miles    
Events Rain , Snow    
Averages and records for this station are not official NWS values.
T = Trace of Precipitation, MM = Missing Value Source: NWS Daily Summary

Daily Weather History Graph

Daily Weather History Graph

Search for Another Location

Airport or City:

Trip Planner

Search our weather history database for the weather conditions in past years. The results will help you decide how hot, cold, wet, or windy it might be!

Date:

Astronomy

Nov. 22, 2013 Rise Set
Actual Time 7:06 AM CST 4:48 PM CST
Civil Twilight 6:36 AM CST 5:18 PM CST
Nautical Twilight 6:03 AM CST 5:51 PM CST
Astronomical Twilight 5:30 AM CST 6:24 PM CST
Moon 9:21 PM CST (11/22) 10:50 AM CST (11/22)
Length of Visible Light 10h 41m
Length of Day
9h 41m
Waning Gibbous, 78% of the Moon is Illuminated
Nov 22
Waning Gibbous
Nov 25
Last Quarter
Dec 2
New
Dec 9
First Quarter
Dec 17
Full

Hourly Weather History & Observations

Time (CST) Temp. Windchill Dew Point Humidity Pressure Visibility Wind Dir Wind Speed Gust Speed Precip Events Conditions
12:15 AM 28.4 °F 18.0 °F 28.4 °F 100% 30.38 in 10.0 mi NNW 12.7 mph - N/A Rain Light Freezing Rain
12:35 AM 28.4 °F 17.0 °F 28.4 °F 100% 30.39 in 8.0 mi NNW 15.0 mph - N/A Rain Light Freezing Rain
12:55 AM 28.4 °F 19.1 °F 28.4 °F 100% 30.39 in 10.0 mi NNW 10.4 mph - N/A Rain Light Freezing Rain
1:15 AM 28.4 °F 18.5 °F 28.4 °F 100% 30.40 in 10.0 mi NNW 11.5 mph - N/A   Overcast
1:35 AM 28.4 °F 17.0 °F 26.6 °F 93% 30.41 in 10.0 mi NNW 15.0 mph - N/A   Overcast
1:55 AM 28.4 °F 18.5 °F 26.6 °F 93% 30.41 in 9.0 mi NNW 11.5 mph 16.1 mph N/A Rain Light Freezing Rain
2:15 AM 26.6 °F 16.2 °F 26.6 °F 100% 30.42 in 4.0 mi NNW 11.5 mph - N/A   Overcast
2:35 AM 26.6 °F 15.7 °F 26.6 °F 100% 30.42 in 7.0 mi NNW 12.7 mph - N/A Snow Light Snow
2:55 AM 26.6 °F 15.2 °F 26.6 °F 100% 30.43 in 10.0 mi NNW 13.8 mph - N/A Snow Light Snow
3:15 AM 26.6 °F 16.8 °F 24.8 °F 93% 30.43 in 10.0 mi NNW 10.4 mph 19.6 mph N/A   Overcast
3:35 AM 26.6 °F 16.2 °F 24.8 °F 93% 30.44 in 10.0 mi NNW 11.5 mph - N/A Rain Light Freezing Rain
3:55 AM 26.6 °F 16.8 °F 24.8 °F 93% 30.44 in 10.0 mi NNW 10.4 mph 16.1 mph N/A   Overcast
4:15 AM 26.6 °F 15.7 °F 24.8 °F 93% 30.44 in 10.0 mi NNW 12.7 mph - N/A   Overcast
4:35 AM 24.8 °F 12.9 °F 24.8 °F 100% 30.45 in 10.0 mi NNW 13.8 mph 19.6 mph N/A Rain Light Freezing Rain
4:55 AM 24.8 °F 13.4 °F 24.8 °F 100% 30.46 in 10.0 mi NNW 12.7 mph - N/A   Overcast
5:15 AM 24.8 °F 13.4 °F 24.8 °F 100% 30.48 in 10.0 mi NNW 12.7 mph - N/A   Overcast
5:35 AM 24.8 °F 14.6 °F 23.0 °F 93% 30.49 in 10.0 mi NNW 10.4 mph - N/A   Overcast
5:55 AM 24.8 °F 14.6 °F 23.0 °F 93% 30.50 in 10.0 mi NNW 10.4 mph - N/A   Overcast
6:15 AM 24.8 °F 14.6 °F 23.0 °F 93% 30.51 in 10.0 mi NNW 10.4 mph - N/A   Overcast
6:35 AM 24.8 °F 14.6 °F 23.0 °F 93% 30.51 in 10.0 mi NNW 10.4 mph - N/A   Overcast
6:55 AM 24.8 °F 14.0 °F 23.0 °F 93% 30.52 in 10.0 mi NNW 11.5 mph - N/A   Overcast
7:15 AM 24.8 °F 14.6 °F 23.0 °F 93% 30.52 in 10.0 mi NNW 10.4 mph - N/A   Overcast
7:35 AM 24.8 °F 14.6 °F 23.0 °F 93% 30.53 in 10.0 mi NNW 10.4 mph - N/A   Overcast
7:55 AM 24.8 °F 14.6 °F 23.0 °F 93% 30.54 in 10.0 mi NNW 10.4 mph 16.1 mph N/A   Overcast
8:15 AM 24.8 °F 14.0 °F 23.0 °F 93% 30.54 in 10.0 mi North 11.5 mph 17.3 mph N/A   Overcast
8:35 AM 24.8 °F 14.0 °F 23.0 °F 93% 30.54 in 10.0 mi North 11.5 mph - N/A   Overcast
8:55 AM 24.8 °F 14.6 °F 23.0 °F 93% 30.55 in 10.0 mi North 10.4 mph - N/A   Overcast
9:15 AM 24.8 °F 15.3 °F 23.0 °F 93% 30.56 in 10.0 mi North 9.2 mph - N/A   Overcast
9:35 AM 24.8 °F 16.1 °F 23.0 °F 93% 30.57 in 10.0 mi NNW 8.1 mph - N/A   Overcast
9:55 AM 24.8 °F - 24.8 °F 100% 30.57 in 10.0 mi North - - N/A   Overcast
10:15 AM 24.8 °F - 23.0 °F 93% 30.57 in 10.0 mi North - - N/A   Overcast
10:35 AM 26.6 °F - 24.8 °F 93% 30.56 in 10.0 mi North - - N/A   Overcast
10:55 AM 26.6 °F 19.1 °F 24.8 °F 93% 30.57 in 10.0 mi NW 6.9 mph - N/A   Mostly Cloudy
11:15 AM 26.6 °F 18.2 °F 24.8 °F 93% 30.57 in 10.0 mi NNW 8.1 mph - N/A   Overcast
11:35 AM 28.4 °F 18.0 °F 26.6 °F 93% 30.57 in 10.0 mi NW 12.7 mph - N/A   Mostly Cloudy
11:55 AM 28.4 °F 18.5 °F 26.6 °F 93% 30.57 in 10.0 mi NW 11.5 mph - N/A   Mostly Cloudy
12:15 PM 28.4 °F 18.5 °F 26.6 °F 93% 30.58 in 10.0 mi NNW 11.5 mph - N/A   Overcast
12:35 PM 28.4 °F 18.5 °F 26.6 °F 93% 30.58 in 10.0 mi NNW 11.5 mph - N/A   Overcast
12:55 PM 28.4 °F 19.7 °F 26.6 °F 93% 30.58 in 10.0 mi NW 9.2 mph - N/A   Mostly Cloudy
1:15 PM 28.4 °F 18.5 °F 26.6 °F 93% 30.58 in 10.0 mi NW 11.5 mph - N/A   Mostly Cloudy
1:35 PM 28.4 °F 19.7 °F 26.6 °F 93% 30.58 in 10.0 mi NNW 9.2 mph - N/A   Scattered Clouds
1:55 PM 28.4 °F 19.1 °F 26.6 °F 93% 30.58 in 10.0 mi NNW 10.4 mph - N/A   Clear
2:15 PM 28.4 °F 19.1 °F 26.6 °F 93% 30.59 in 10.0 mi NW 10.4 mph - N/A   Partly Cloudy
2:35 PM 28.4 °F 18.5 °F 26.6 °F 93% 30.58 in 10.0 mi NNW 11.5 mph - N/A   Scattered Clouds
2:55 PM 28.4 °F 18.5 °F 24.8 °F 86% 30.59 in 10.0 mi NW 11.5 mph - N/A   Partly Cloudy
3:15 PM 28.4 °F 19.7 °F 24.8 °F 86% 30.58 in 10.0 mi NW 9.2 mph - N/A   Clear
3:35 PM 26.6 °F 18.2 °F 23.0 °F 86% 30.58 in 10.0 mi NNW 8.1 mph - N/A   Clear
3:55 PM 26.6 °F 16.2 °F 23.0 °F 86% 30.58 in 10.0 mi NNW 11.5 mph - N/A   Clear
4:15 PM 24.8 °F 16.1 °F 23.0 °F 93% 30.58 in 10.0 mi NNW 8.1 mph - N/A   Clear
4:35 PM 24.8 °F 16.9 °F 21.2 °F 86% 30.58 in 10.0 mi NNW 6.9 mph - N/A   Clear
4:55 PM 24.8 °F 17.9 °F 21.2 °F 86% 30.57 in 10.0 mi NNW 5.8 mph - N/A   Clear
5:15 PM 23.0 °F - 19.4 °F 86% 30.57 in 10.0 mi North - - N/A   Clear
5:35 PM 23.0 °F - 19.4 °F 86% 30.57 in 10.0 mi North - - N/A   Clear
5:55 PM 23.0 °F - 19.4 °F 86% 30.57 in 10.0 mi North - - N/A   Clear
6:15 PM 21.2 °F - 19.4 °F 93% 30.57 in 10.0 mi North - - N/A   Clear
6:35 PM 21.2 °F - 19.4 °F 93% 30.58 in 10.0 mi North - - N/A   Clear
6:55 PM 19.4 °F - 17.6 °F 93% 30.58 in 10.0 mi North - - N/A   Clear
7:15 PM 19.4 °F - 17.6 °F 93% 30.58 in 10.0 mi North - - N/A   Clear
7:35 PM 19.4 °F - 17.6 °F 93% 30.58 in 10.0 mi North - - N/A   Clear
7:55 PM 19.4 °F - 17.6 °F 93% 30.59 in 10.0 mi North - - N/A   Clear
8:15 PM 19.4 °F - 17.6 °F 93% 30.59 in 10.0 mi North - - N/A   Clear
8:35 PM 19.4 °F - 17.6 °F 93% 30.58 in 10.0 mi North - - N/A   Clear
8:55 PM 19.4 °F - 15.8 °F 86% 30.58 in 10.0 mi North - - N/A   Clear
9:15 PM 19.4 °F - 15.8 °F 86% 30.58 in 10.0 mi North - - N/A   Clear
9:35 PM 19.4 °F - 15.8 °F 86% 30.58 in 10.0 mi North - - N/A   Clear
9:55 PM 19.4 °F - 15.8 °F 86% 30.57 in 10.0 mi North - - N/A   Clear
10:15 PM 19.4 °F - 15.8 °F 86% 30.57 in 10.0 mi Calm Calm - N/A   Clear
10:35 PM 19.4 °F - 15.8 °F 86% 30.57 in 10.0 mi North - - N/A   Clear
10:55 PM 17.6 °F - 15.8 °F 93% 30.58 in 10.0 mi Calm Calm - N/A   Clear
11:15 PM 17.6 °F - 15.8 °F 93% 30.59 in 10.0 mi North - - N/A   Clear
11:35 PM 17.6 °F - 15.8 °F 93% 30.58 in 10.0 mi North - - N/A   Clear
11:55 PM 17.6 °F - 15.8 °F 93% 30.58 in 10.0 mi North - - N/A   Clear